DW5574 Widnes UK current weather conditions

sailwx.info

Wind from 094 at 0 knots gusting 11

Air temperature 19.4° C
Dewpoint 12.0° C

Last reported at 2019-Aug-17 11:08 UTC.
Time now 2019-Aug-17 11:36 UTC

Location: N 53°23' W 002°43'.
View on Google Maps.

See reports from other nearby stations

  
Tides and Currents Weather Stations Pressure Air Temp Water Temp Dewpoint Dewpoint Depression Visibility Wind Speed Wind Dir Waves Ship Positions
date/time (UTC)wind fromknots sea level pressurealtimeterstation pressurevisibilityair tempwater tempwave heightnotes
2019-Aug-17 11:08 094 0 gusting 11 19.4
2019-Aug-17 11:03 134 0 gusting 10 18.9
2019-Aug-17 10:58 049 1 gusting 10 18.3
2019-Aug-17 10:53 262 1 gusting 9 18.3
2019-Aug-17 10:48 211 2 gusting 9 18.9
2019-Aug-17 10:43 259 1 gusting 6 18.9
2019-Aug-17 10:38 222 0 gusting 3 18.3
2019-Aug-17 10:33 218 18.3
2019-Aug-17 10:28 123 18.3
2019-Aug-17 10:23 221 17.8
2019-Aug-17 10:18 123 17.8
2019-Aug-17 10:13 086 17.8
2019-Aug-17 10:08 156 17.8
2019-Aug-17 10:03 243 17.8
2019-Aug-17 09:58 131 17.8
2019-Aug-17 09:53 248 17.2
2019-Aug-17 09:48 335 0 gusting 6 16.7
2019-Aug-17 09:43 209 0 gusting 6 16.7
2019-Aug-17 09:38 098 17.2
2019-Aug-17 09:33 138 17.2
2019-Aug-17 09:28 179 0 gusting 3 17.2
2019-Aug-17 09:23 238 0 gusting 5 17.2
2019-Aug-17 09:18 200 0 gusting 5 17.8
2019-Aug-17 09:13 302 0 gusting 6 17.8
2019-Aug-17 09:08 207 1 gusting 10 17.8
2019-Aug-17 09:03 210 2 gusting 10 18.3
2019-Aug-17 08:58 163 1 gusting 6 17.8
2019-Aug-17 08:53 033 1 gusting 4 17.8
2019-Aug-17 08:48 189 1 gusting 5 17.8
2019-Aug-17 08:43 133 1 gusting 5 17.8
2019-Aug-17 08:38 090 1 gusting 6 17.8
2019-Aug-17 08:33 342 1 gusting 6 17.8
2019-Aug-17 08:28 080 2 gusting 8 17.8
2019-Aug-17 08:23 293 2 gusting 8 17.2
2019-Aug-17 08:18 074 1 gusting 6 17.2
2019-Aug-17 08:13 210 1 gusting 6 17.2
2019-Aug-17 08:08 318 1 gusting 6 17.2
2019-Aug-17 08:03 089 1 gusting 12 16.7
2019-Aug-17 07:58 250 1 gusting 12 17.2
2019-Aug-17 07:53 089 1 gusting 7 16.7
2019-Aug-17 07:48 054 1 gusting 7 16.7
2019-Aug-17 07:43 046 0 gusting 7 16.7
2019-Aug-17 07:38 219 0 gusting 5 16.7
2019-Aug-17 07:33 213 1 gusting 6 16.1
2019-Aug-17 07:23 213 0 gusting 10 15.6
2019-Aug-17 07:18 235 0 gusting 6 15.6
2019-Aug-17 07:13 233 1 gusting 6 15.6
2019-Aug-17 07:08 226 1 gusting 6 15.6
2019-Aug-17 07:03 188 0 gusting 6 15.6
2019-Aug-17 06:58 229 1 gusting 8 15.0
2019-Aug-17 06:53 215 1 gusting 8 15.0
2019-Aug-17 06:48 238 0 gusting 5 15.0
2019-Aug-17 06:43 225 0 gusting 4 15.0
2019-Aug-17 06:38 214 0 gusting 4 15.0
2019-Aug-17 06:33 214 0 gusting 6 15.0
2019-Aug-17 06:28 246 0 gusting 6 15.0
2019-Aug-17 06:23 327 1 gusting 5 15.0
2019-Aug-17 06:18 228 0 gusting 5 15.0
2019-Aug-17 06:13 228 1 gusting 6 15.0
2019-Aug-17 06:08 089 0 gusting 6 15.0
2019-Aug-17 06:03 176 0 gusting 6 15.0
2019-Aug-17 05:58 240 0 gusting 6 15.0
2019-Aug-17 05:53 228 0 gusting 8 15.0
2019-Aug-17 05:48 309 0 gusting 8 15.0
2019-Aug-17 05:43 040 0 gusting 4 14.4
2019-Aug-17 05:38 290 0 gusting 5 14.4
2019-Aug-17 05:33 278 0 gusting 5 14.4
2019-Aug-17 05:28 152 0 gusting 6 14.4
2019-Aug-17 05:23 259 0 gusting 6 14.4
2019-Aug-17 05:18 240 0 gusting 6 14.4
2019-Aug-17 05:13 305 0 gusting 4 14.4
2019-Aug-17 05:08 269 0 gusting 3 14.4
2019-Aug-17 05:03 253 0 gusting 5 14.4
2019-Aug-17 04:58 235 0 gusting 5 14.4
2019-Aug-17 04:53 079 0 gusting 4 14.4
2019-Aug-17 04:48 200 0 gusting 5 14.4
2019-Aug-17 04:43 252 14.4
2019-Aug-17 04:38 260 14.4
2019-Aug-17 04:32 139 14.4
2019-Aug-17 04:27 095 14.4
2019-Aug-17 04:22 146 14.4
2019-Aug-17 04:18 141 14.4
2019-Aug-17 04:13 129 14.4
2019-Aug-17 04:08 132 14.4
2019-Aug-17 04:03 132 14.4
2019-Aug-17 03:57 153 14.4
2019-Aug-17 03:53 150 14.4
2019-Aug-17 03:47 170 15.0
2019-Aug-17 03:42 245 15.0
2019-Aug-17 03:37 111 15.0
2019-Aug-17 03:32 119 15.0
2019-Aug-17 03:27 259 15.0
2019-Aug-17 03:22 215 15.0
2019-Aug-17 03:17 15.0
2019-Aug-17 03:12 149 15.0
2019-Aug-17 03:07 262 15.0
2019-Aug-17 03:02 337 15.0
2019-Aug-17 02:57 049 15.0
2019-Aug-17 02:52 239 15.0
2019-Aug-17 02:47 167 15.0
2019-Aug-17 02:42 236 15.0
2019-Aug-17 02:37 262 15.0
2019-Aug-17 02:32 141 15.0
2019-Aug-17 02:27 022 15.0
2019-Aug-17 02:17 326 15.0
2019-Aug-17 02:12 241 0 gusting 6 15.0
2019-Aug-17 02:07 284 0 gusting 8 15.0
2019-Aug-17 02:02 315 2 gusting 9 15.0
2019-Aug-17 01:57 221 3 gusting 9 15.0
2019-Aug-17 01:52 064 2 gusting 10 15.0
2019-Aug-17 01:47 211 1 gusting 10 15.0
2019-Aug-17 01:42 249 1 gusting 7 15.0
2019-Aug-17 01:37 212 2 gusting 7 15.0
2019-Aug-17 01:32 222 1 gusting 7 14.4
2019-Aug-17 01:27 124 0 gusting 6 14.4
2019-Aug-17 01:22 302 0 gusting 7 14.4
2019-Aug-17 01:17 262 0 gusting 7 14.4
2019-Aug-17 01:12 293 0 gusting 4 14.4
2019-Aug-17 01:07 248 15.0
2019-Aug-17 01:02 354 0 gusting 6 15.0
2019-Aug-17 00:57 273 0 gusting 6 15.0
2019-Aug-17 00:52 281 1 gusting 7 15.6
2019-Aug-17 00:47 271 2 gusting 9 15.6
2019-Aug-17 00:42 218 3 gusting 9 15.6
2019-Aug-17 00:37 232 3 gusting 12 15.6
2019-Aug-17 00:32 232 4 gusting 12 15.6
2019-Aug-17 00:27 015 3 gusting 9 15.6
2019-Aug-17 00:22 233 4 gusting 12 15.6
2019-Aug-17 00:17 264 5 gusting 12 15.6
2019-Aug-17 00:12 218 4 gusting 12 15.0
2019-Aug-17 00:07 226 2 gusting 11 15.0
2019-Aug-17 00:02 040 1 gusting 6 15.0
2019-Aug-16 23:57 273 0 gusting 5 15.0
2019-Aug-16 23:52 267 0 gusting 3 15.0
2019-Aug-16 23:47 256 0 gusting 3 15.0
2019-Aug-16 23:42 167 0 gusting 3 15.0
2019-Aug-16 23:37 332 0 gusting 3 15.0
2019-Aug-16 23:32 248 0 gusting 7 15.0
2019-Aug-16 23:27 231 0 gusting 7 15.0
2019-Aug-16 23:22 065 1 gusting 7 15.0
2019-Aug-16 23:17 319 0 gusting 7 15.0
2019-Aug-16 23:12 110 0 gusting 6 15.0
2019-Aug-16 23:07 001 1 gusting 6 15.6
2019-Aug-16 23:02 260 1 gusting 6 15.6
2019-Aug-16 22:57 259 1 gusting 6 15.6
2019-Aug-16 22:52 224 1 gusting 6 15.6
2019-Aug-16 22:47 004 2 gusting 6 15.6
2019-Aug-16 22:42 326 2 gusting 6 15.6
2019-Aug-16 22:37 276 2 gusting 6 15.6
2019-Aug-16 22:32 252 2 gusting 7 15.6
2019-Aug-16 22:27 125 1 gusting 7 15.6
2019-Aug-16 22:22 231 1 gusting 9 16.1
2019-Aug-16 22:17 141 2 gusting 9 16.1
2019-Aug-16 22:12 146 3 gusting 13 16.1
2019-Aug-16 22:07 219 3 gusting 13 16.1
2019-Aug-16 22:02 225 4 gusting 13 16.7
2019-Aug-16 21:57 273 6 gusting 16 16.7
2019-Aug-16 21:52 214 6 gusting 16 16.7
2019-Aug-16 21:47 228 5 gusting 15 16.7
2019-Aug-16 21:42 330 4 gusting 14 17.2
2019-Aug-16 21:37 255 4 gusting 13 17.2
2019-Aug-16 21:32 009 3 gusting 13 17.2
2019-Aug-16 21:27 238 2 gusting 12 17.2
2019-Aug-16 21:22 248 4 gusting 10 17.2
2019-Aug-16 21:17 232 3 gusting 10 17.2
2019-Aug-16 21:12 104 1 gusting 11 17.2
2019-Aug-16 21:07 221 0 gusting 11 17.2
2019-Aug-16 21:02 224 1 gusting 7 17.2
2019-Aug-16 20:57 248 1 gusting 12 17.2
2019-Aug-16 20:52 294 2 gusting 12 17.2
2019-Aug-16 20:47 253 2 gusting 11 17.2
2019-Aug-16 20:42 343 2 gusting 10 17.2
2019-Aug-16 20:37 233 3 gusting 11 17.2
2019-Aug-16 20:32 228 4 gusting 14 17.2
2019-Aug-16 20:27 232 2 gusting 14 16.7
2019-Aug-16 20:22 256 0 gusting 6 16.7
2019-Aug-16 20:17 113 0 gusting 6 16.7
2019-Aug-16 20:12 158 17.2
2019-Aug-16 20:07 133 0 gusting 4 17.2
2019-Aug-16 20:02 245 0 gusting 2 17.2
2019-Aug-16 19:57 044 17.2
2019-Aug-16 19:52 285 0 gusting 3 17.2
2019-Aug-16 19:47 339 0 gusting 3 17.2
2019-Aug-16 19:42 009 0 gusting 3 17.2
2019-Aug-16 19:37 262 0 gusting 4 17.2
2019-Aug-16 19:32 120 17.2
2019-Aug-16 19:27 333 17.2
2019-Aug-16 19:22 139 17.2
2019-Aug-16 19:17 091 0 gusting 4 17.2
2019-Aug-16 19:12 018 0 gusting 6 17.2
2019-Aug-16 19:07 118 0 gusting 6 17.2
2019-Aug-16 19:02 256 0 gusting 5 17.2
2019-Aug-16 18:57 114 0 gusting 5 17.2
2019-Aug-16 18:52 324 0 gusting 5 17.2
2019-Aug-16 18:47 132 0 gusting 5 17.2
2019-Aug-16 18:42 041 0 gusting 4 17.2
2019-Aug-16 18:37 217 0 gusting 6 17.2
2019-Aug-16 18:32 139 1 gusting 6 17.2
2019-Aug-16 18:27 174 0 gusting 5 17.2
2019-Aug-16 18:22 17.2
2019-Aug-16 18:17 357 0 gusting 5 16.7
2019-Aug-16 18:12 102 0 gusting 5 16.7
2019-Aug-16 18:07 308 0 gusting 6 16.7
2019-Aug-16 18:02 026 0 gusting 6 16.7
2019-Aug-16 17:57 304 0 gusting 3 16.7
2019-Aug-16 17:52 062 0 gusting 5 16.7
2019-Aug-16 17:47 139 0 gusting 5 16.7
2019-Aug-16 17:42 135 0 gusting 7 16.7
2019-Aug-16 17:37 152 0 gusting 7 16.7
2019-Aug-16 17:32 143 0 gusting 6 16.7
2019-Aug-16 17:27 124 0 gusting 6 16.7
2019-Aug-16 17:22 359 1 gusting 6 16.7
2019-Aug-16 17:17 009 2 gusting 8 16.7
2019-Aug-16 17:12 144 2 gusting 11 16.7
2019-Aug-16 17:07 142 2 gusting 11 16.7
2019-Aug-16 17:02 128 2 gusting 12 16.7
2019-Aug-16 16:57 124 2 gusting 12 16.7
2019-Aug-16 16:52 141 3 gusting 11 16.7
2019-Aug-16 16:47 351 2 gusting 11 16.1
2019-Aug-16 16:42 040 2 gusting 11 16.1
2019-Aug-16 16:37 029 2 gusting 12 16.1
2019-Aug-16 16:32 245 2 gusting 12 16.1
2019-Aug-16 16:27 181 2 gusting 9 16.1
2019-Aug-16 16:22 092 1 gusting 9 16.7
2019-Aug-16 16:17 096 0 gusting 6 16.7
2019-Aug-16 16:12 323 0 gusting 6 16.7
2019-Aug-16 16:07 150 0 gusting 4 16.7
2019-Aug-16 16:02 112 1 gusting 6 16.7
2019-Aug-16 15:57 284 1 gusting 6 16.7
2019-Aug-16 15:52 150 1 gusting 5 16.7
2019-Aug-16 15:47 152 0 gusting 5 16.7
2019-Aug-16 15:42 154 0 gusting 5 16.7
2019-Aug-16 15:37 126 0 gusting 7 16.7
2019-Aug-16 15:32 321 0 gusting 7 16.7
2019-Aug-16 15:27 124 0 gusting 4 16.7
2019-Aug-16 15:22 096 1 gusting 6 16.7
2019-Aug-16 15:17 135 1 gusting 6 16.1
2019-Aug-16 15:12 266 1 gusting 7 16.1
2019-Aug-16 15:07 290 1 gusting 7 16.1
2019-Aug-16 15:02 100 1 gusting 7 16.1
2019-Aug-16 14:57 085 1 gusting 6 16.1
2019-Aug-16 14:52 065 1 gusting 6 16.1
2019-Aug-16 14:47 056 0 gusting 5 16.1
2019-Aug-16 14:42 139 0 gusting 4 16.1
2019-Aug-16 14:37 108 0 gusting 6 16.1
2019-Aug-16 14:32 321 0 gusting 6 15.6
2019-Aug-16 14:27 135 1 gusting 8 15.6
2019-Aug-16 14:22 089 2 gusting 8 15.6
2019-Aug-16 14:17 344 1 gusting 8 15.6
2019-Aug-16 14:12 146 1 gusting 8 15.6
2019-Aug-16 14:07 120 1 gusting 8 15.6
2019-Aug-16 14:02 112 1 gusting 5 15.6
2019-Aug-16 13:57 194 1 gusting 7 15.6
2019-Aug-16 13:52 122 1 gusting 7 15.6
2019-Aug-16 13:47 309 0 gusting 6 15.6
2019-Aug-16 13:42 120 0 gusting 5 15.6
2019-Aug-16 13:37 142 0 gusting 5 15.6
2019-Aug-16 13:32 131 0 gusting 5 15.0
2019-Aug-16 13:27 124 0 gusting 4 15.0
2019-Aug-16 13:22 330 0 gusting 5 15.0
2019-Aug-16 13:17 109 0 gusting 5 15.0
2019-Aug-16 13:12 120 0 gusting 5 15.0
2019-Aug-16 13:07 122 1 gusting 6 15.0
2019-Aug-16 13:02 142 1 gusting 6 15.0
2019-Aug-16 12:57 131 1 gusting 8 15.0
2019-Aug-16 12:52 132 0 gusting 8 15.0
2019-Aug-16 12:47 131 1 gusting 5 15.0
2019-Aug-16 12:42 123 1 gusting 6 15.0
2019-Aug-16 12:37 047 1 gusting 7 15.0
2019-Aug-16 12:32 020 1 gusting 8 15.0
2019-Aug-16 12:27 297 1 gusting 8 15.0
2019-Aug-16 12:22 142 1 gusting 9 15.0
2019-Aug-16 12:17 203 1 gusting 9 15.0
2019-Aug-16 12:12 126 1 gusting 6 15.0
2019-Aug-16 12:07 120 1 gusting 6 15.0
2019-Aug-16 12:02 126 1 gusting 6 15.0
2019-Aug-16 11:57 140 1 gusting 6 15.0
2019-Aug-16 11:52 125 1 gusting 6 15.0
2019-Aug-16 11:47 124 1 gusting 6 15.0
2019-Aug-16 11:42 090 1 gusting 8 14.4
2019-Aug-16 11:37 104 2 gusting 8 14.4
2019-Aug-16 11:32 033 1 gusting 7 14.4
2019-Aug-16 11:27 111 1 gusting 7 14.4
2019-Aug-16 11:22 125 1 gusting 11 14.4
2019-Aug-16 11:17 139 1 gusting 11 14.4
2019-Aug-16 11:12 102 1 gusting 8 14.4
2019-Aug-16 11:07 117 1 gusting 8 14.4
2019-Aug-16 11:02 106 2 gusting 8 14.4
2019-Aug-16 10:57 333 2 gusting 8 15.0
2019-Aug-16 10:52 131 2 gusting 9 15.0
2019-Aug-16 10:47 160 2 gusting 10 15.0
2019-Aug-16 10:42 140 2 gusting 10 15.0
2019-Aug-16 10:37 148 1 gusting 9 15.0
2019-Aug-16 10:32 146 1 gusting 11 15.0
2019-Aug-16 10:27 122 1 gusting 11 15.0
2019-Aug-16 10:22 143 1 gusting 6 15.0
2019-Aug-16 10:17 022 1 gusting 8 15.0
2019-Aug-16 10:12 134 0 gusting 8 15.0
2019-Aug-16 10:07 134 1 gusting 7 15.0
2019-Aug-16 10:02 141 1 gusting 7 15.0
2019-Aug-16 09:57 219 1 gusting 7 15.0
2019-Aug-16 09:52 067 1 gusting 7 15.0
2019-Aug-16 09:47 150 1 gusting 6 15.0
2019-Aug-16 09:42 140 1 gusting 8 15.0
2019-Aug-16 09:37 170 0 gusting 8 14.4
2019-Aug-16 09:32 139 0 gusting 6 14.4
2019-Aug-16 09:27 129 0 gusting 6 14.4
2019-Aug-16 09:22 086 0 gusting 6 14.4
2019-Aug-16 09:17 180 1 gusting 7 14.4
2019-Aug-16 09:11 129 1 gusting 7 14.4
2019-Aug-16 09:06 132 0 gusting 7 14.4
2019-Aug-16 09:01 165 0 gusting 5 14.4
2019-Aug-16 08:56 222 14.4
2019-Aug-16 08:51 340 14.4
2019-Aug-16 08:46 089 0 gusting 7 14.4
2019-Aug-16 08:41 141 1 gusting 7 14.4
2019-Aug-16 08:36 148 1 gusting 6 14.4
2019-Aug-16 08:31 173 2 gusting 6 14.4
2019-Aug-16 08:26 106 2 gusting 7 13.9
2019-Aug-16 08:21 131 1 gusting 7 13.9
2019-Aug-16 08:16 068 0 gusting 7 13.9
2019-Aug-16 08:11 064 0 gusting 6 13.9
2019-Aug-16 08:06 159 0 gusting 6 13.9
2019-Aug-16 08:01 139 1 gusting 6 13.9
2019-Aug-16 07:56 124 0 gusting 6 13.9
2019-Aug-16 07:51 250 0 gusting 4 13.9
2019-Aug-16 07:46 053 0 gusting 9 13.9
2019-Aug-16 07:41 312 0 gusting 9 13.9
2019-Aug-16 07:36 133 0 gusting 6 13.9
2019-Aug-16 07:31 058 0 gusting 5 13.9
2019-Aug-16 07:26 122 0 gusting 5 13.9
2019-Aug-16 07:21 105 0 gusting 5 13.9
2019-Aug-16 07:16 129 0 gusting 6 13.9
2019-Aug-16 07:11 015 1 gusting 7 13.9
2019-Aug-16 07:06 160 0 gusting 7 13.9
2019-Aug-16 07:01 162 1 gusting 8 13.9
2019-Aug-16 06:56 136 1 gusting 8 13.9
2019-Aug-16 06:51 124 1 gusting 7 13.9
2019-Aug-16 06:46 102 1 gusting 7 14.4
2019-Aug-16 06:41 153 1 gusting 6 14.4
2019-Aug-16 06:36 173 1 gusting 5 14.4
2019-Aug-16 06:31 146 1 gusting 6 14.4
2019-Aug-16 06:26 166 1 gusting 6 14.4
2019-Aug-16 06:21 132 1 gusting 6 14.4
2019-Aug-16 06:16 108 1 gusting 6 14.4
2019-Aug-16 06:11 158 1 gusting 6 14.4
2019-Aug-16 06:06 056 1 gusting 6 14.4
2019-Aug-16 06:01 131 1 gusting 6 14.4
2019-Aug-16 05:56 115 0 gusting 5 14.4
2019-Aug-16 05:51 097 0 gusting 6 13.9
2019-Aug-16 05:46 133 0 gusting 6 13.9
2019-Aug-16 05:41 136 0 gusting 4 13.9
2019-Aug-16 05:36 150 0 gusting 4 13.9
2019-Aug-16 05:31 198 0 gusting 5 13.9
2019-Aug-16 05:26 127 0 gusting 5 13.9
2019-Aug-16 05:21 139 0 gusting 4 13.9
2019-Aug-16 05:16 158 0 gusting 5 13.9
2019-Aug-16 05:11 113 1 gusting 5 13.9
2019-Aug-16 05:06 166 1 gusting 6 13.9
2019-Aug-16 05:01 226 0 gusting 6 13.9
2019-Aug-16 04:56 128 0 gusting 4 13.9
2019-Aug-16 04:51 136 0 gusting 4 13.3
2019-Aug-16 04:46 153 0 gusting 4 13.3
2019-Aug-16 04:41 082 0 gusting 3 13.3
2019-Aug-16 04:36 131 0 gusting 5 13.3
2019-Aug-16 04:30 139 0 gusting 5 13.3
2019-Aug-16 04:25 167 1 gusting 7 13.3
2019-Aug-16 04:20 353 1 gusting 7 13.3
2019-Aug-16 04:15 150 0 gusting 5 13.3
2019-Aug-16 04:10 200 0 gusting 4 13.3
2019-Aug-16 04:05 134 0 gusting 6 13.3
2019-Aug-16 04:00 149 0 gusting 6 13.3
2019-Aug-16 03:55 136 0 gusting 6 13.3
2019-Aug-16 03:50 150 0 gusting 6 13.3
2019-Aug-16 03:45 089 0 gusting 5 13.3
2019-Aug-16 03:40 149 0 gusting 5 13.3
2019-Aug-16 03:35 136 0 gusting 5 13.3
2019-Aug-16 03:30 139 0 gusting 5 13.3
2019-Aug-16 03:20 143 0 gusting 3 13.3
2019-Aug-16 03:15 143 0 gusting 3 13.3
2019-Aug-16 03:10 133 0 gusting 3 13.3
2019-Aug-16 03:05 132 13.9
2019-Aug-16 03:00 115 13.9
2019-Aug-16 02:55 101 0 gusting 3 13.9
2019-Aug-16 02:50 141 13.9
2019-Aug-16 02:45 117 13.9
2019-Aug-16 02:40 142 13.3
2019-Aug-16 02:35 145 13.3
2019-Aug-16 02:30 150 13.3
2019-Aug-16 02:25 141 13.3
2019-Aug-16 02:20 128 13.3
2019-Aug-16 02:15 127 13.3
2019-Aug-16 02:10 115 0 gusting 3 13.3
2019-Aug-16 02:05 136 0 gusting 3 13.3
2019-Aug-16 02:00 118 0 gusting 2 13.3
2019-Aug-16 01:55 132 0 gusting 2 13.3
2019-Aug-16 01:50 129 0 gusting 2 13.3
2019-Aug-16 01:45 145 0 gusting 3 13.3
2019-Aug-16 01:40 135 0 gusting 3 13.3
2019-Aug-16 01:35 130 1 gusting 3 13.3
2019-Aug-16 01:25 129 0 gusting 3 13.9
2019-Aug-16 01:20 123 1 gusting 3 13.9
2019-Aug-16 01:15 141 0 gusting 3 13.9
2019-Aug-16 01:10 135 0 gusting 3 13.9
2019-Aug-16 01:05 122 13.9
2019-Aug-16 01:00 127 13.9
2019-Aug-16 00:55 130 13.9
2019-Aug-16 00:50 122 13.9
2019-Aug-16 00:45 134 0 gusting 2 13.9
2019-Aug-16 00:40 123 1 gusting 3 13.9
2019-Aug-16 00:35 143 1 gusting 3 13.9
2019-Aug-16 00:30 103 0 gusting 3 13.9
2019-Aug-16 00:25 100 0 gusting 3 13.9
2019-Aug-16 00:20 086 0 gusting 2 13.9
2019-Aug-16 00:15 138 13.9
2019-Aug-16 00:10 148 13.9
2019-Aug-16 00:05 146 13.9
2019-Aug-16 00:00 143 13.9
2019-Aug-15 23:55 139 13.9
2019-Aug-15 23:50 330 0 gusting 3 13.9
2019-Aug-15 23:45 150 1 gusting 4 14.4
2019-Aug-15 23:40 132 1 gusting 4 14.4
2019-Aug-15 23:34 135 0 gusting 3 14.4
2019-Aug-15 23:29 113 0 gusting 2 14.4
2019-Aug-15 23:25 148 14.4
2019-Aug-15 23:20 127 14.4
2019-Aug-15 23:14 150 0 gusting 2 14.4
2019-Aug-15 23:09 124 0 gusting 2 14.4
2019-Aug-15 23:04 132 14.4
2019-Aug-15 22:59 132 14.4
2019-Aug-15 22:54 139 14.4
2019-Aug-15 22:49 133 14.4
2019-Aug-15 22:44 142 14.4
2019-Aug-15 22:39 139 15.0
2019-Aug-15 22:34 136 14.4
2019-Aug-15 22:29 148 14.4
2019-Aug-15 22:24 129 14.4
2019-Aug-15 22:19 146 14.4
2019-Aug-15 22:14 142 14.4
2019-Aug-15 22:09 145 14.4
2019-Aug-15 22:02 139 0 gusting 2 14.4
2019-Aug-15 21:54 135 1 gusting 3 14.4
2019-Aug-15 21:49 131 0 gusting 3 14.4
2019-Aug-15 21:44 135 0 gusting 2 15.0
2019-Aug-15 21:39 138 15.0
2019-Aug-15 21:34 148 0 gusting 5 15.0
2019-Aug-15 21:29 274 0 gusting 5 15.0
2019-Aug-15 21:24 246 15.0
2019-Aug-15 21:19 228 0 gusting 3 15.0
2019-Aug-15 21:14 257 0 gusting 3 15.0
2019-Aug-15 21:09 224 0 gusting 2 14.4
2019-Aug-15 21:04 243 14.4
2019-Aug-15 20:59 219 14.4
2019-Aug-15 20:54 235 14.4
2019-Aug-15 20:49 243 14.4
2019-Aug-15 20:44 238 14.4
2019-Aug-15 20:39 226 15.0
2019-Aug-15 20:34 225 15.0
2019-Aug-15 20:29 225 15.0
2019-Aug-15 20:24 225 15.0
2019-Aug-15 20:19 225 15.0
2019-Aug-15 20:14 231 15.0
2019-Aug-15 20:09 231 15.0
2019-Aug-15 20:04 239 15.0
2019-Aug-15 19:59 216 15.0
2019-Aug-15 19:54 229 15.6
2019-Aug-15 19:49 222 15.6
2019-Aug-15 19:44 222 15.6
2019-Aug-15 19:39 228 15.6
2019-Aug-15 19:34 228 15.6
2019-Aug-15 19:29 233 15.6
2019-Aug-15 19:24 160 15.6
2019-Aug-15 19:19 166 16.1
2019-Aug-15 19:14 169 16.1
2019-Aug-15 19:09 156 16.1
2019-Aug-15 19:04 217 16.1
2019-Aug-15 18:59 218 16.7
2019-Aug-15 18:54 127 16.7
2019-Aug-15 18:49 141 0 gusting 2 16.7
2019-Aug-15 18:44 259 0 gusting 3 16.7
2019-Aug-15 18:39 203 16.7
2019-Aug-15 18:34 124 16.7
2019-Aug-15 18:29 212 16.7
2019-Aug-15 18:24 211 0 gusting 1 16.7
2019-Aug-15 18:19 101 0 gusting 3 16.7
2019-Aug-15 18:14 049 1 gusting 3 16.7
2019-Aug-15 18:09 025 1 gusting 5 17.2
2019-Aug-15 18:04 065 0 gusting 5 17.2
2019-Aug-15 17:59 149 0 gusting 4 17.2
2019-Aug-15 17:54 293 0 gusting 4 17.2
2019-Aug-15 17:49 117 1 gusting 4 17.2
2019-Aug-15 17:44 084 1 gusting 4 17.8
2019-Aug-15 17:39 070 1 gusting 4 17.8
2019-Aug-15 17:34 146 0 gusting 3 17.8
2019-Aug-15 17:29 100 0 gusting 3 17.8
2019-Aug-15 17:24 103 1 gusting 6 17.2
2019-Aug-15 17:19 136 2 gusting 6 17.8
2019-Aug-15 17:14 243 1 gusting 6 17.8
2019-Aug-15 17:09 079 0 gusting 4 17.8
2019-Aug-15 17:04 212 1 gusting 5 17.8
2019-Aug-15 16:59 248 1 gusting 5 17.8
2019-Aug-15 16:54 070 2 gusting 6 17.8
2019-Aug-15 16:49 295 2 gusting 6 17.8
2019-Aug-15 16:44 138 2 gusting 6 17.8
2019-Aug-15 16:39 173 2 gusting 6 17.8
2019-Aug-15 16:34 082 2 gusting 8 17.8
2019-Aug-15 16:29 112 2 gusting 8 17.8
2019-Aug-15 16:24 089 2 gusting 11 17.8
2019-Aug-15 16:19 092 2 gusting 11 17.8
2019-Aug-15 16:14 309 2 gusting 7 17.8
2019-Aug-15 16:09 126 2 gusting 7 17.8
2019-Aug-15 16:04 086 3 gusting 8 17.8
2019-Aug-15 15:59 102 3 gusting 8 17.8
2019-Aug-15 15:54 216 2 gusting 6 17.8
2019-Aug-15 15:49 057 2 gusting 6 18.3
2019-Aug-15 15:44 103 3 gusting 6 17.8
2019-Aug-15 15:39 060 3 gusting 6 17.8
2019-Aug-15 15:34 050 3 gusting 6 17.8
2019-Aug-15 15:29 041 3 gusting 6 17.8
2019-Aug-15 15:24 292 3 gusting 8 17.8
2019-Aug-15 15:19 239 3 gusting 8 17.8
2019-Aug-15 15:14 115 3 gusting 7 17.8
2019-Aug-15 15:09 344 2 gusting 7 17.8
2019-Aug-15 15:04 311 3 gusting 7 17.8
2019-Aug-15 14:59 354 3 gusting 7 17.8
2019-Aug-15 14:54 060 2 gusting 8 17.8
2019-Aug-15 14:49 071 3 gusting 8 17.8
2019-Aug-15 14:44 101 2 gusting 8 17.8
2019-Aug-15 14:39 047 2 gusting 9 17.8
2019-Aug-15 14:34 065 3 gusting 9 17.8
2019-Aug-15 14:29 011 3 gusting 8 17.8
2019-Aug-15 14:24 212 2 gusting 8 18.3
2019-Aug-15 14:19 334 2 gusting 7 18.3
2019-Aug-15 14:14 263 3 gusting 9 18.3
2019-Aug-15 14:09 243 3 gusting 9 18.3
2019-Aug-15 14:04 053 3 gusting 6 18.3
2019-Aug-15 13:59 125 3 gusting 8 18.3
2019-Aug-15 13:54 112 3 gusting 9 18.3
2019-Aug-15 13:49 081 3 gusting 9 17.8
2019-Aug-15 13:44 081 4 gusting 9 17.8
2019-Aug-15 13:39 088 3 gusting 10 18.3
2019-Aug-15 13:34 113 3 gusting 10 18.3
2019-Aug-15 13:29 309 2 gusting 7 18.3
2019-Aug-15 13:24 078 2 gusting 8 17.8
2019-Aug-15 13:19 127 3 gusting 8 17.8
2019-Aug-15 13:14 074 3 gusting 7 17.2
2019-Aug-15 13:09 043 3 gusting 7 17.2
2019-Aug-15 13:04 151 2 gusting 6 17.2
2019-Aug-15 12:59 085 3 gusting 8 16.7
2019-Aug-15 12:54 114 2 gusting 8 16.7
2019-Aug-15 12:49 126 2 gusting 7 17.2
2019-Aug-15 12:44 130 2 gusting 6 16.7
2019-Aug-15 12:39 122 2 gusting 5 16.7
2019-Aug-15 12:34 095 2 gusting 6 16.7
2019-Aug-15 12:29 183 2 gusting 7 16.7
2019-Aug-15 12:24 116 3 gusting 8 16.7
2019-Aug-15 12:19 136 3 gusting 10 16.7
2019-Aug-15 12:14 029 3 gusting 10 17.2
2019-Aug-15 12:09 102 3 gusting 8 16.7
2019-Aug-15 12:04 092 4 gusting 9 16.7
2019-Aug-15 11:59 113 3 gusting 9 16.7
2019-Aug-15 11:54 054 3 gusting 9 16.7
2019-Aug-15 11:49 228 3 gusting 9 16.7
2019-Aug-15 11:44 127 3 gusting 12 16.7
2019-Aug-15 11:39 327 3 gusting 12 16.7
2019-Aug-15 11:34 243 3 gusting 9 16.7
2019-Aug-15 11:29 288 3 gusting 7 16.7
2019-Aug-15 11:24 249 3 gusting 8 16.7
2019-Aug-15 11:19 033 3 gusting 9 16.7
2019-Aug-15 11:14 112 4 gusting 9 16.7
2019-Aug-15 11:09 112 3 gusting 10 16.7
2019-Aug-15 11:04 074 3 gusting 10 16.7